Change the Weather History Date:

Thursday, October 11, 2012

  Actual Average Record
Temperature  
Mean Temperature 64 °F 60 °F  
Max Temperature 82 °F 73 °F 92 °F (1962)
Min Temperature 46 °F 47 °F 27 °F (2009)
Degree Days  
Heating Degree Days 1 6  
Month to date heating degree days 104 54  
Since 1 July heating degree days 133 98  
Cooling Degree Days 0 1  
Month to date cooling degree days 3 17  
Year to date cooling degree days 1982 1387  
Growing Degree Days 14 (Base 50)    
Moisture  
Dew Point 55 °F    
Average Humidity 72    
Maximum Humidity 100    
Minimum Humidity 43    
Precipitation  
Precipitation T in 0.06 in 1.07 in (1930)
Month to date precipitation T 0.66  
Year to date precipitation 11.77 17.85  
Snow  
Snow 0.00 in 0.00 in T in (1986)
Month to date snowfall 0.0 0.0  
Since 1 July snowfall T T  
Since 1 September snowfall T T  
Snow Depth 0.00 in    
Sea Level Pressure  
Sea Level Pressure 30.03 in    
Wind  
Wind Speed 12 mph (SSW)    
Max Wind Speed 23 mph    
Max Gust Speed 28 mph    
Visibility 9 miles    
Events      
T = Trace of Precipitation, MM = Missing Value Source: NWS Daily Summary

Daily Weather History Graph

Daily Weather History Graph

Search for Another Location

Airport or City:

Trip Planner

Search our weather history database for the weather conditions in past years. The results will help you decide how hot, cold, wet, or windy it might be!

Date:

Astronomy

Oct. 11, 2012 Rise Set
Actual Time 7:50 AM CDT 7:16 PM CDT
Civil Twilight 7:24 AM CDT 7:41 PM CDT
Nautical Twilight 6:55 AM CDT 8:11 PM CDT
Astronomical Twilight 6:25 AM CDT 8:40 PM CDT
Moon 3:39 AM CDT (10/11) 4:46 PM CDT (10/11)
Length of Visible Light 12h 17m
Length of Day
11h 26m
Waning Crescent, 18% of the Moon is Illuminated
Oct 11
Waning Crescent
Oct 15
New
Oct 21
First Quarter
Oct 29
Full
Nov 6
Last Quarter

Hourly Weather History & Observations

Time (CDT) Temp. Windchill Dew Point Humidity Pressure Visibility Wind Dir Wind Speed Gust Speed Precip Events Conditions
12:53 AM 48.9 °F - 46.0 °F 90% 30.06 in 10.0 mi South 13.8 mph 21.9 mph N/A   Clear
1:53 AM 48.9 °F - 46.0 °F 90% 30.05 in 10.0 mi South 15.0 mph - N/A   Clear
2:53 AM 46.9 °F - 45.0 °F 93% 30.04 in 8.0 mi South 9.2 mph - N/A   Clear
3:53 AM 46.0 °F 43.1 °F 44.1 °F 93% 30.04 in 7.0 mi South 5.8 mph - N/A   Clear
4:40 AM 50.0 °F - 48.2 °F 94% 30.08 in 8.0 mi South 9.2 mph - N/A   Mostly Cloudy
4:53 AM 52.0 °F - 50.0 °F 93% 30.00 in 9.0 mi SSW 10.4 mph - N/A   Overcast
5:40 AM 57.2 °F - 53.6 °F 88% 30.07 in 9.0 mi SSW 6.9 mph - N/A   Scattered Clouds
5:53 AM 57.0 °F - 54.0 °F 89% 30.00 in 8.0 mi SSW 8.1 mph - N/A   Clear
6:53 AM 55.9 °F - 54.0 °F 93% 30.02 in 6.0 mi WSW 5.8 mph - N/A   Clear
7:01 AM 55.4 °F - 53.6 °F 94% 30.09 in 6.0 mi WSW 5.8 mph - N/A   Partly Cloudy
7:53 AM 54.0 °F - 53.1 °F 97% 30.05 in 4.0 mi Calm Calm - N/A   Partly Cloudy
8:53 AM 57.9 °F - 55.0 °F 90% 30.06 in 5.0 mi SW 6.9 mph - N/A   Partly Cloudy
9:33 AM 60.8 °F - 55.4 °F 82% 30.14 in 7.0 mi SSW 8.1 mph - N/A   Mostly Cloudy
9:53 AM 62.6 °F - 55.4 °F 77% 30.14 in 7.0 mi South 8.1 mph - N/A   Overcast
10:33 AM 64.4 °F - 55.4 °F 73% 30.14 in 10.0 mi SSW 12.7 mph - N/A   Scattered Clouds
10:53 AM 66.9 °F - 57.0 °F 70% 30.06 in 10.0 mi SSW 15.0 mph - N/A   Clear
11:53 AM 71.1 °F - 57.9 °F 63% 30.03 in 10.0 mi WSW 11.5 mph - N/A   Scattered Clouds
12:53 PM 75.9 °F - 57.9 °F 54% 30.01 in 10.0 mi SSW 16.1 mph 25.3 mph N/A   Clear
1:53 PM 79.0 °F - 57.0 °F 47% 29.98 in 10.0 mi SSW 16.1 mph 26.5 mph N/A   Clear
2:53 PM 78.1 °F - 57.0 °F 48% 29.96 in 10.0 mi SSW 17.3 mph - N/A   Clear
3:53 PM 82.0 °F - 59.0 °F 45% 29.94 in 10.0 mi SSW 16.1 mph 23.0 mph N/A   Clear
4:53 PM 82.4 °F - 57.2 °F 42% 30.04 in 10.0 mi South 18.4 mph 24.2 mph N/A   Clear
5:53 PM 80.1 °F - 57.0 °F 45% 29.91 in 10.0 mi South 16.1 mph - N/A   Clear
6:53 PM 77.0 °F - 57.9 °F 52% 29.94 in 10.0 mi South 16.1 mph 23.0 mph N/A   Clear
7:53 PM 73.4 °F - 59.0 °F 61% 30.08 in 10.0 mi South 13.8 mph - N/A   Clear
8:53 PM 70.0 °F - 59.0 °F 68% 29.99 in 10.0 mi South 11.5 mph - N/A   Clear
9:53 PM 71.1 °F - 60.1 °F 68% 29.99 in 10.0 mi SSW 11.5 mph - N/A   Mostly Cloudy
10:53 PM 71.6 °F - 60.8 °F 69% 30.13 in 10.0 mi South 12.7 mph - N/A   Mostly Cloudy
11:53 PM 69.1 °F - 61.0 °F 75% 30.01 in 10.0 mi SSE 10.4 mph - N/A   Partly Cloudy